{"data":{"norad_id":66471,"epoch":"2026-09-20T02:57:03.816576Z","epoch_age_seconds":122377,"freshness":"FRESH","line1":"1 66471U 25262R   26263.12296084  .00012840  00000+0  47514-3 0  9990","line2":"2 66471  42.9989 278.0084 0001381 263.0794  96.9900 15.27590610 48641","mean_motion":15.2759061,"eccentricity":0.0001381,"inclination_deg":42.9989,"raan_deg":278.0084,"arg_perigee_deg":263.0794,"mean_anomaly_deg":96.99,"bstar":0.00047514,"rev_number":4864,"period_min":94.266093976579,"perigee_km":482.06980065418,"apogee_km":483.96485147904,"semimajor_km":6861.1543260666,"source":"CELESTRAK","updated_at":"2026-09-21T09:00:35.915543Z"}}